This is the latest recevied weather packets stored in our database for station/object N3NDE. If no packets are shown the sender has not sent any weather packets the latest 1 day(s).
| Time | Temp. | Humidity | Pressure | Rain* | Wind** | Luminosity | Snow |
|---|---|---|---|---|---|---|---|
| 1836274826 | 16.11° C | 41% | 1022.2 hPa | 0 mm | 0.89 m/s, 98° | 0 W/m² | - |
| 1836274524 | 16.11° C | 41% | 1022.4 hPa | 0 mm | 0.45 m/s, 118° | 0 W/m² | - |
| 1836274377 | 16.67° C | 41% | 1022.4 hPa | 0 mm | 0 m/s | 0 W/m² | - |
| 1836274222 | 16.11° C | 41% | 1022.1 hPa | 0 mm | 0.89 m/s, 101° | 0 W/m² | - |
| 1836273916 | 16.11° C | 42% | 1022 hPa | 0 mm | 0.45 m/s, 81° | 0 W/m² | - |
| 1778056016 | 5° C | 83% | 1014.8 hPa | 1.27 mm | 1.79 m/s, 26° | 0 W/m² | - |
| 1778055711 | 5° C | 90% | 1014.5 hPa | 1.27 mm | 1.79 m/s, 9° | 0 W/m² | - |
| 1778055409 | 5° C | 91% | 1014.1 hPa | 0 mm | 0.89 m/s, 44° | 0 W/m² | - |
| 1778055107 | 5° C | 91% | 1014.1 hPa | 0 mm | 0 m/s | 0 W/m² | - |
| 1778054804 | 5° C | 91% | 1014.1 hPa | 0 mm | 0 m/s | 0 W/m² | - |
| 1778054501 | 5° C | 92% | 1013.9 hPa | 0 mm | 0 m/s | 0 W/m² | - |
| 1778054199 | 5° C | 92% | 1014 hPa | 0 mm | 0 m/s | 0 W/m² | - |
| 1778053895 | 5° C | 92% | 1014 hPa | 0 mm | 0 m/s | 0 W/m² | - |
| 1778053593 | 5° C | 92% | 1014.1 hPa | 0 mm | 0 m/s | 0 W/m² | - |
| 1778053290 | 5° C | 91% | 1014.1 hPa | 0 mm | 0.45 m/s, 78° | 0 W/m² | - |
| 1778052988 | 5° C | 91% | 1014 hPa | 0 mm | 0 m/s | 0 W/m² | - |
| 1778052685 | 5° C | 90% | 1014.2 hPa | 0 mm | 0.89 m/s, 84° | 0 W/m² | - |
| 1778052381 | 5° C | 90% | 1014.1 hPa | 3.05 mm | 0.89 m/s, 120° | 0 W/m² | - |
| 1778052080 | 5° C | 89% | 1014.6 hPa | 4.83 mm | 1.34 m/s, 162° | 0 W/m² | - |
| 1778051777 | 5.56° C | 88% | 1014.6 hPa | 3.05 mm | 0.45 m/s, 56° | 0 W/m² | - |
| 1778051474 | 5.56° C | 86% | 1014.3 hPa | 0 mm | 0.89 m/s, 41° | 0 W/m² | - |
| 1778051171 | 5.56° C | 85% | 1014.1 hPa | 1.27 mm | 0.45 m/s, 52° | 0 W/m² | - |
| 1778050868 | 5.56° C | 83% | 1014.1 hPa | 1.27 mm | 2.24 m/s, 16° | 0 W/m² | - |
| 1778050567 | 6.11° C | 80% | 1014 hPa | 0 mm | 1.34 m/s, 15° | 0 W/m² | - |
| 1778050263 | 6.11° C | 79% | 1013.7 hPa | 0 mm | 0.89 m/s, 47° | 0 W/m² | - |
* Rain latest hour (hover to see other rain measurements)
** Current wind speed in m/s (hover to see current wind gust speed)